Flag for Namibia Weather past 2 weeks in Swakopmund, Namibia

Now
63 °F

Overcast.


Feels Like: 63 °F
Forecast: 64 / 73 °F
Wind: 7 mph from Northwest

Location: Walvis Bay

Current Time: Feb 1, 2015 at 12:26:38 PM

Latest Report: Feb 1, 2015 at 11:00 AM


Visibility: N/A

Pressure: 30.01 "Hg

Humidity: 83%

Dew point: 57 °F

Location of SwakopmundLocation

Historic Weather in Swakopmund — Graph

°F

Swakopmund temperature yesterday

Maximum temperature yesterday: 82 °F (at 1:00 PM)
Minimum temperature yesterday: 59 °F (at 5:00 AM)
Average temperature yesterday: 67 °F

Past Weeks' High & Low Weather Summary

 TemperatureHumidityPressure
High84 °F (Jan 24, 2:00 PM)94% (Jan 25, 8:00 AM)30.01 "Hg (Jan 25, 8:00 AM)
Low59 °F (Jan 18, 1:00 AM)34% (Jan 31, 4:00 PM)29.83 "Hg (Jan 23, 4:00 PM)
Average67 °F75%29.93 "Hg
* Reported Jan 17 12:00 Noon — Feb 1 11:00 AM, Swakopmund, Weather by CustomWeather, © 2014

Note: Actual official high and low records may vary slightly from our data, if they occured in-between our weather recording intervals... More about our weather records

Advertising

Swakopmund weather history for previous 24 hours

 ConditionsComfort  
Time TempWeatherWind HumidityBarometerVisibility
11:00 AM
Feb 1
63 °FOvercast.7 mph83%30.01 "HgN/A
10:00 AM61 °FOvercast.8 mph88%29.98 "HgN/A
9:00 AM61 °FLow clouds.8 mph88%29.98 "HgN/A
8:00 AM61 °FLow clouds.8 mph88%29.95 "HgN/A
7:00 AM61 °FCool.8 mph88%29.95 "HgN/A
6:00 AM59 °FCool.10 mph94%29.92 "HgN/A
5:00 AM61 °FCool.8 mph88%29.92 "HgN/A
4:00 AM61 °FCool.6 mph88%29.92 "HgN/A
3:00 AM61 °FCool.3 mph88%29.92 "HgN/A
2:00 AM61 °FCool.3 mph88%29.92 "HgN/A
1:00 AM61 °FCool.1 mph88%29.92 "HgN/A
12:00 AM61 °FCool.8 mph88%29.95 "HgN/A
11:00 PM
Jan 31
63 °FMild.8 mph83%29.92 "HgN/A
10:00 PM64 °FMild.10 mph78%29.92 "HgN/A
9:00 PM66 °FMild.13 mph73%29.92 "HgN/A
7:00 PM72 °FMild.16 mph57%29.86 "HgN/A
6:00 PM75 °FMild.17 mph50%29.86 "HgN/A
4:00 PM81 °FPleasantly warm.22 mph34%29.86 "HgN/A
3:00 PM79 °FWarm.18 mph42%29.89 "HgN/A
2:00 PM79 °FScattered clouds.17 mph45%29.92 "HgN/A
1:00 PM82 °FScattered clouds.6 mph40%29.92 "HgN/A
Weather by CustomWeather, © 2014

See weather overviewHow to use our weather pages